CZ-11 R/B, 43872

Orbit data source: Space-Track

CZ-11 R/B, 43872 is space debris in SSO originally from a launch on Fri, 21 Dec 2018 UTC launched from the Jiuquan Satellite Launch Center, China (JSC). Debris objects in space refer to the collection of defunct objects orbiting the Earth. Examples of debris include non-operational satellites, rocket bodies, and fragments generated from explosions, collisions, or faulty payload assembly.

Loading next visibility...
Identifier
43872, 2018-108B
Orbit
SSO
Country
Flag of CNCN / PRC
Related business
Manufacturer
CALT
Mission
Spacecraft
Bus & Motor
CZ-11-4, Unknown motor
Mass
500 kg wet, 500 kg dry
Launch date (UTC)
2018-12-21 (7 years ago)
Launch vehicle
Unknown
Launch site
Jiuquan Satellite Launch Center, China (JSC)
Object type
Payload
Rocket body
Debris
Shape & HBR
Cyl, 0.8 m
Radar Cross Section
2.651 m², Large (>1 m²)

Expand to show TLE details & history
Last TLE update: 9 hours ago

TLE from 9 hours ago
0 CZ-11 R/B
1 43872U 18108B   25258.55012887  .00000139  00000-0  83758-4 0  9998
2 43872 100.4078 282.2757 0330054 288.6326  67.9267 14.01749466344425
Epoch: 2025-09-15T13:12Z
TLE epoch observation values (Epoch: 2025-09-15T13:12:11.134Z)
Latitude
0.00003°
Longitude
89.47613°
Altitude
807.365 km
Speed
7.492 km/s
True Right ascension
18h 49m 06s
True Declination
0° 00' 00"
Sunlit
Object was in daylight at epoch
Visualization orbit readout
Latitude
Unknown
Longitude
Unknown
Altitude
Unknown
Speed
Unknown
Apparent Right ascension
Unknown
Apparent Declination
Unknown
Sunlit
N/A
Visualization observer readout
Local Sidereal Time
14:26:20
Azimuth
Unknown
Elevation
Unknown
Doppler factor
Unknown
Orbital elements
Apogee altitude
1,124.733 km
Perigee altitude
645.287 km
Semi-major axis
7,263.147 km
Eccentricity
0.03301
Inclination
100.4078°
RAAN
282.2757°
Arg. of periapsis
288.6326°
True anomaly
71.48449°
Mean anomaly
67.9267°
Eccentric anomaly
69.70032°
Mean motion
3.50636 °/min
Orbital period
102.67 mins
BSTAR
0.000083758
Loading maneuver chart data...
Computing Atmospheric mass density...
Loading historical data...
Loading historical data...
Loading historical data...
Loading historical data...
Loading historical data...
Loading historical data...
Loading historical data...
Other satellites on launch #108 in the year 2018 (2018-12-21 UTC)

Documentation

Showing up to 5 results
|